RH
100 98 96 99 100 99 100 100 100 100 98 98 100 100 100 100 100 100 100 100 98 98 92 94 97 76 62 55 49 57 61 66 68 60 48 32 28 29 25 19 21 25 24 32 39 32 28 23 20 17 12 11 12 12 13 13 12 11 11 11 9 6 6 6 6 7 7 7 8 8 7 8 8 9 6 7 22 32 40 46 47 49 50 49 49 56 69 79
100 98 98 99 98 97 99 100 100 100 99 98 100 100 100 100 99 100 99 98 96 95 88 91 93 65 45 42 46 55 63 72 63 44 40 31 28 34 30 21 21 25 28 34 31 25 23 19 18 14 10 9 10 12 13 13 13 12 11 10 8 7 7 8 7 8 8 9 9 8 7 8 8 8 7 8 12 21 35 41 46 52 51 49 50 61 74 79
100 99 100 99 98 98 99 100 99 100 99 99 100 99 100 100 100 101 97 96 97 97 87 77 74 55 40 40 40 51 67 63 41 33 37 27 27 38 31 19 22 27 30 30 23 20 19 16 16 12 9 8 9 12 13 14 13 11 11 11 8 8 9 8 8 9 9 9 9 9 8 8 8 7 7 8 9 16 29 34 40 49 52 49 50 65 76 78
100 100 100 100 99 99 98 99 100 100 99 99 100 100 100 99 100 98 96 97 97 102 88 62 56 43 33 34 31 50 67 46 25 28 28 20 27 39 30 19 25 31 33 30 22 20 18 16 15 10 9 8 9 12 11 13 12 10 12 9 8 10 8 8 9 10 9 9 10 9 9 8 7 7 7 7 8 13 19 25 32 40 49 48 51 66 75 77
100 100 99 99 98 99 98 99 100 100 100 100 99 100 100 99 98 95 97 99 98 102 81 50 43 33 25 24 27 56 59 27 20 25 17 17 29 36 28 22 31 36 34 29 23 21 19 16 14 10 10 9 10 11 10 12 11 12 12 8 11 11 8 10 10 10 10 9 10 10 9 8 7 7 7 6 7 8 9 16 24 32 43 46 52 65 72 76
100 100 99 96 96 99 100 99 100 99 99 100 100 100 99 97 98 98 99 100 99 97 72 41 32 26 20 16 30 61 46 11 15 20 16 25 30 28 26 27 35 36 30 25 22 19 17 15 13 11 9 9 11 9 10 11 10 12 10 9 12 10 9 10 9 9 10 10 11 10 9 8 8 7 6 6 7 5 7 13 19 28 41 46 53 64 71 73
98 98 95 94 94 96 99 100 98 95 95 99 98 98 99 99 100 100 99 99 99 95 71 37 26 23 15 22 43 52 27 5 13 21 26 33 30 24 26 30 31 29 25 20 18 16 15 14 11 10 8 10 11 9 10 11 11 11 9 11 12 11 11 10 10 10 10 12 11 10 9 9 8 7 7 7 5 6 14 21 25 34 43 47 54 64 70 70
96 95 94 94 94 95 99 100 98 93 92 93 94 96 98 99 99 99 98 93 90 95 75 35 27 24 15 36 45 25 10 7 14 25 33 37 30 23 27 33 31 25 21 16 15 13 13 12 10 8 7 9 10 10 11 10 11 11 9 11 11 11 11 10 11 11 11 12 10 9 9 8 7 7 7 5 7 16 27 32 35 42 46 48 57 67 70 70
94 93 95 96 96 97 98 99 98 96 94 93 93 96 98 97 97 98 96 84 75 89 81 41 28 26 30 48 33 5 6 10 18 29 42 47 31 22 28 34 31 23 17 15 14 12 11 10 8 8 7 8 9 11 12 10 11 12 9 11 11 11 11 11 11 10 11 9 9 10 9 8 7 7 6 8 18 30 37 40 42 46 49 53 62 70 71 71
95 93 95 97 97 96 95 96 97 97 98 97 95 98 100 97 95 95 96 90 78 84 83 52 29 31 46 47 20 4 10 16 26 35 49 53 31 25 31 28 27 22 16 16 13 11 11 9 8 9 9 8 9 11 12 11 12 13 12 12 12 12 11 12 11 9 10 8 9 9 9 8 6 8 7 13 29 36 39 43 45 47 51 56 63 70 73 72
96 94 95 98 98 96 95 94 95 97 97 99 100 100 99 99 98 94 93 95 92 89 83 56 30 42 54 33 10 5 11 26 36 34 43 47 34 31 32 27 26 21 16 15 14 13 11 10 9 9 9 9 10 12 12 11 12 12 12 12 11 11 10 10 10 9 9 8 8 8 9 8 7 9 6 12 28 33 38 44 46 48 50 55 62 70 74 72
97 94 94 98 99 98 96 93 94 96 97 101 99 96 99 101 90 81 87 94 95 93 86 63 41 53 57 26 11 7 13 33 39 34 38 40 36 34 33 31 27 21 18 16 14 14 13 12 11 9 10 10 10 12 12 11 12 11 11 12 10 10 10 9 9 9 9 8 8 7 9 8 7 8 4 10 27 33 37 42 46 49 50 53 61 70 74 71
98 96 94 95 98 100 97 93 93 95 98 99 96 98 98 84 60 59 83 93 94 94 84 71 61 67 57 22 9 10 20 39 38 36 38 35 34 33 33 33 28 26 23 19 16 16 14 14 14 11 11 12 10 12 12 12 12 11 11 11 10 10 9 8 9 8 8 8 8 8 9 7 5 6 4 11 27 35 36 40 45 49 50 51 58 68 73 70
99 97 95 95 98 99 98 94 94 98 97 95 97 96 79 63 54 59 81 93 96 97 86 77 74 73 52 17 10 13 16 30 31 33 35 30 27 29 30 30 30 30 26 22 18 17 15 14 16 14 12 13 12 13 14 13 12 11 11 11 10 10 9 9 9 8 9 8 7 9 9 7 5 6 7 15 29 36 35 37 43 48 49 50 54 63 69 66
99 97 95 98 98 96 96 93 97 101 97 98 98 83 64 65 67 60 69 80 80 85 89 85 79 68 39 13 22 24 15 19 21 24 30 27 22 22 24 27 30 30 28 24 18 16 16 14 15 14 13 15 15 14 13 13 12 11 12 12 11 10 10 10 9 8 9 8 7 8 8 6 5 6 9 18 30 36 35 35 40 46 47 47 50 57 65 63
99 96 96 98 99 97 94 88 94 99 100 101 83 66 73 85 78 57 53 61 62 75 86 75 68 59 29 14 28 32 25 23 21 22 26 25 21 18 21 26 28 29 28 24 18 15 14 13 14 13 13 15 15 14 13 14 14 13 12 13 13 12 10 10 9 9 9 9 8 8 8 7 6 6 8 16 26 32 34 35 40 44 44 45 48 54 63 64
99 96 98 99 99 98 94 88 90 98 103 88 58 57 82 90 85 71 62 69 74 83 80 58 55 52 29 16 19 23 24 24 27 31 29 27 23 20 22 24 25 26 24 21 19 14 11 13 14 13 14 14 13 14 16 17 15 15 13 13 14 13 11 11 10 9 8 9 9 9 9 8 7 7 6 11 20 26 30 33 39 43 43 43 45 52 59 64
98 96 98 99 98 95 95 92 91 101 97 64 45 63 77 78 85 82 74 81 84 82 76 63 56 41 22 16 14 19 24 22 27 31 31 31 26 21 21 21 22 21 19 18 17 13 10 12 11 13 15 15 15 15 16 16 14 16 17 15 14 13 12 12 10 10 9 10 10 10 10 9 7 6 6 7 13 21 26 31 35 39 43 42 42 48 55 60
100 97 97 100 99 96 96 92 93 103 84 51 54 76 81 84 89 82 74 74 66 56 50 48 41 23 15 16 14 20 24 22 23 24 29 32 26 22 20 19 20 18 18 18 17 13 11 13 13 14 16 16 16 14 13 13 13 14 15 14 14 13 12 11 11 10 10 11 10 10 9 9 8 6 7 6 9 17 22 29 34 34 39 42 40 44 52 58
99 96 99 100 99 99 97 89 93 97 72 57 74 81 73 69 59 56 61 58 45 32 24 25 25 17 16 16 14 18 19 19 20 20 28 31 25 21 18 18 19 19 20 19 20 16 12 16 16 13 14 14 15 15 15 16 16 14 14 13 13 12 12 12 14 11 10 12 10 10 10 9 8 7 7 7 9 13 16 25 33 33 35 39 39 40 47 55
98 97 100 99 100 101 94 86 84 74 56 62 77 63 44 37 31 34 40 34 27 26 25 22 21 20 20 18 18 20 17 16 17 20 30 30 23 19 17 19 21 22 21 18 22 20 16 19 17 12 14 15 17 19 21 22 20 17 15 14 13 12 11 12 14 12 11 13 10 9 11 9 9 8 7 7 10 11 10 16 26 30 30 31 35 37 39 47
99 97 98 100 100 99 96 90 69 47 49 67 67 44 31 36 41 43 38 29 23 24 25 24 25 26 23 23 24 25 22 17 15 18 30 30 21 18 17 17 19 20 22 21 23 24 21 20 15 14 17 20 22 22 23 24 22 20 16 15 15 12 11 13 14 12 10 13 11 10 11 11 10 8 8 8 10 11 9 9 16 23 26 26 28 33 36 42
99 97 99 99 98 101 96 76 48 42 62 71 54 35 36 46 49 49 46 38 29 24 25 26 28 26 23 25 27 28 24 18 13 14 27 30 21 18 16 14 16 19 24 23 21 23 23 19 14 16 20 22 24 23 23 24 22 21 18 16 15 12 13 15 14 13 12 13 13 11 12 12 10 9 9 8 8 9 8 8 9 15 23 24 24 28 34 41
99 97 100 97 100 99 76 51 47 63 75 63 46 40 45 51 51 51 48 38 27 23 24 25 26 24 24 26 28 28 23 18 14 12 20 25 19 18 15 13 16 19 23 21 19 20 19 17 16 17 19 20 23 25 24 23 20 19 18 17 14 13 14 14 12 13 14 14 15 14 14 12 10 9 8 7 9 9 8 10 11 12 18 22 24 28 34 40
99 99 98 97 102 86 57 54 67 73 65 48 45 48 49 52 54 55 50 37 28 25 25 28 26 23 23 27 28 27 22 19 16 12 16 19 17 18 16 13 16 20 21 19 20 20 17 19 18 18 19 17 20 23 22 21 18 17 19 17 15 14 14 12 12 14 15 14 16 16 15 12 10 10 10 9 12 11 9 12 11 11 15 19 25 29 34 39
99 100 98 100 102 76 51 62 73 64 50 42 48 52 51 55 57 58 50 33 24 24 26 28 25 22 23 26 26 23 21 20 15 13 15 15 15 18 19 17 18 19 18 19 22 21 19 21 19 19 20 18 19 20 19 20 19 17 17 16 15 13 12 13 14 16 15 14 17 18 15 13 11 11 12 11 12 11 12 16 15 13 13 16 21 25 31 37
99 100 99 100 101 82 59 60 63 51 40 45 53 52 52 55 55 60 52 29 20 23 23 22 22 22 21 21 22 23 22 18 15 14 14 15 15 16 20 21 20 19 19 21 24 22 20 23 21 20 22 21 20 20 18 18 19 18 16 14 13 12 14 16 15 15 15 14 18 17 13 15 13 11 12 12 14 12 13 22 25 23 21 20 21 23 27 34
99 99 100 99 100 96 82 74 64 44 37 47 50 48 53 54 54 59 47 26 20 20 17 18 20 20 19 19 21 21 19 17 18 17 14 15 17 17 20 20 19 19 19 21 24 23 22 24 23 22 22 21 19 18 17 18 19 17 14 13 13 13 14 14 14 15 16 18 18 14 14 17 14 11 13 15 14 10 15 30 36 35 34 32 30 29 30 36
99 99 100 99 98 95 94 94 75 49 45 47 43 47 54 52 52 47 31 21 21 17 14 16 19 17 17 19 22 21 17 17 19 18 15 16 17 17 19 18 17 19 19 18 20 21 21 21 20 20 21 20 17 16 15 17 19 15 13 14 13 14 14 14 15 14 18 24 20 14 16 17 14 11 12 15 14 14 23 37 42 41 42 40 39 39 37 40
100 99 98 101 95 84 87 90 72 52 48 44 43 50 53 51 47 33 20 19 20 16 13 13 15 14 13 16 19 20 19 17 17 17 16 15 16 18 17 16 16 18 20 19 18 18 19 18 17 18 19 17 15 15 15 16 16 14 14 13 13 15 15 17 16 15 21 26 19 15 16 17 17 11 9 20 30 33 37 43 45 46 45 44 45 43 39 41
100 100 99 101 93 82 77 66 55 53 49 45 49 51 49 43 29 18 19 18 15 15 13 11 12 12 13 15 15 16 18 18 17 18 17 16 17 18 18 19 19 20 23 23 20 19 19 19 18 16 16 16 16 16 16 15 15 15 14 13 16 18 19 20 19 20 24 23 18 15 15 18 18 12 14 28 38 41 45 47 50 52 48 46 47 43 39 40
99 98 100 100 97 95 75 51 53 57 46 48 55 45 36 29 17 14 16 15 18 17 14 14 13 13 13 13 15 15 16 18 18 18 17 16 18 18 17 20 21 24 27 24 22 23 22 20 17 16 15 15 18 17 16 16 15 15 15 16 20 21 23 26 23 24 23 20 20 17 15 18 16 16 25 33 37 42 47 48 51 54 52 48 45 43 42 42
100 98 98 95 97 98 75 57 63 57 48 58 56 35 23 19 17 20 15 14 21 17 14 16 13 13 13 12 17 17 16 19 18 18 16 14 17 17 14 15 16 20 24 23 23 25 24 20 17 18 17 15 17 17 17 17 15 16 15 18 21 20 26 30 24 22 20 20 22 18 18 19 13 21 36 40 42 46 47 47 51 55 55 52 45 42 44 44
86 83 90 90 91 86 72 70 69 59 62 65 44 26 21 15 18 27 21 15 17 15 15 18 14 12 12 13 18 18 20 23 18 17 18 15 18 19 16 17 16 16 19 23 24 24 25 24 20 19 17 16 17 16 15 14 14 15 12 14 19 18 23 27 22 20 19 21 24 21 22 20 15 29 43 45 46 45 43 46 52 56 55 53 50 47 45 44
59 62 74 80 83 73 68 74 67 64 70 52 28 22 19 13 16 22 22 17 17 16 14 15 13 10 11 13 15 17 24 28 21 18 18 16 18 20 18 17 16 16 18 23 25 23 24 23 17 16 16 14 16 14 12 14 15 15 11 13 18 16 17 22 24 26 23 22 23 22 21 16 18 33 42 43 46 44 43 45 51 58 56 55 60 59 53 48
59 70 73 77 84 74 68 67 60 69 68 38 21 20 15 16 17 16 22 23 21 20 15 13 11 10 12 14 15 17 22 27 25 20 19 18 17 18 17 15 15 15 17 21 26 25 25 22 15 16 17 13 14 14 11 14 17 16 15 15 15 13 14 21 28 32 28 24 23 22 20 15 18 30 39 43 45 44 47 48 53 61 60 61 71 74 69 64
77 80 72 76 82 68 58 56 60 71 57 28 21 22 17 20 18 17 25 25 23 23 17 14 15 15 16 16 16 17 20 26 27 24 23 21 22 22 18 18 19 16 15 18 24 25 25 25 18 16 18 15 13 14 12 12 14 16 17 14 12 13 15 18 25 27 25 25 24 21 22 18 18 29 42 48 47 48 51 51 54 62 63 64 73 78 79 76
87 77 68 72 70 54 46 53 63 59 36 20 23 25 22 21 21 24 26 25 26 24 17 15 20 20 18 19 19 17 19 26 27 27 27 25 32 34 25 24 25 21 18 18 23 26 25 27 22 15 17 17 13 16 17 13 11 13 15 12 14 20 21 20 24 24 24 27 24 22 23 18 15 28 45 52 53 53 52 53 58 68 74 74 76 79 79 79
84 67 60 69 66 52 50 60 63 43 22 18 18 19 22 22 25 28 26 27 29 24 20 19 21 22 20 20 21 19 21 25 26 29 31 30 41 45 34 31 31 27 25 22 22 25 25 30 28 17 16 18 17 18 19 17 14 13 14 13 14 19 22 23 24 22 24 26 25 25 24 22 28 40 50 55 57 55 56 64 73 79 84 82 81 83 83 84
71 53 56 72 65 54 61 68 56 29 17 21 18 19 26 26 28 29 28 30 28 24 25 23 21 25 23 20 20 21 23 25 27 31 31 31 43 48 39 36 37 32 26 22 22 25 26 32 33 24 18 20 22 20 18 18 17 15 17 17 16 17 19 23 22 18 20 24 26 27 23 31 48 53 51 54 60 62 62 71 81 82 82 81 80 83 85 85
61 51 60 72 62 60 70 66 47 29 25 31 29 29 34 33 32 30 28 29 27 25 26 25 25 26 25 23 22 23 24 24 26 31 32 32 40 48 44 41 42 36 30 27 26 28 30 33 34 31 27 26 25 22 20 21 20 18 18 16 16 18 19 24 25 18 17 19 24 25 23 39 57 52 50 59 69 75 73 72 80 81 80 81 80 82 84 83
58 55 65 67 62 69 68 50 41 39 36 38 36 35 40 39 35 30 28 28 27 25 24 25 27 26 26 26 24 25 26 24 26 34 38 37 42 48 46 43 42 36 35 35 32 34 36 33 33 33 29 26 25 23 23 26 25 24 23 19 18 20 20 25 28 25 22 18 22 23 22 43 61 55 58 72 75 78 77 75 80 81 80 81 78 79 83 83
50 56 69 68 66 71 59 38 38 42 38 39 38 35 37 38 34 30 28 27 26 27 26 26 28 28 30 29 27 27 27 27 29 34 38 40 43 47 44 42 40 36 38 39 36 39 41 38 38 37 30 26 25 24 24 27 27 27 31 31 27 25 26 28 29 31 29 22 25 25 24 47 70 65 64 72 72 76 78 77 78 80 83 84 79 79 80 80
44 54 59 61 68 69 52 37 36 40 41 42 39 36 36 35 34 32 30 29 29 29 30 30 29 30 31 30 29 28 29 32 31 31 36 38 39 43 43 41 39 40 49 54 48 47 47 45 44 44 44 40 34 32 31 30 30 31 36 40 37 33 34 33 28 29 29 24 27 27 30 54 73 70 68 69 69 78 81 78 78 80 83 86 83 82 79 77
46 54 51 53 61 57 47 41 38 40 45 45 41 41 39 35 34 33 32 32 29 29 32 32 29 29 28 27 28 28 29 33 31 29 33 35 35 39 42 45 43 40 50 60 55 51 54 53 46 45 54 57 51 50 50 47 44 38 37 43 44 41 42 40 30 25 26 27 27 24 32 59 75 73 73 72 70 79 84 80 80 80 82 84 83 83 80 77
47 53 54 54 52 47 43 43 40 38 42 43 41 40 40 38 35 32 32 33 30 29 31 30 27 29 29 29 31 31 27 28 29 29 30 32 35 35 38 46 47 45 58 65 53 45 50 52 49 48 51 55 56 58 59 58 54 48 43 47 51 52 54 48 33 30 38 36 30 26 30 55 76 79 80 77 74 80 86 83 82 81 81 82 81 82 80 77
44 46 51 52 50 46 42 38 37 37 38 39 39 40 41 40 37 33 32 32 31 30 31 29 28 31 35 35 38 37 29 26 28 30 30 30 32 33 33 38 40 44 61 64 48 45 51 50 52 54 51 51 53 54 55 53 50 48 51 56 58 58 61 55 43 46 51 39 36 45 46 53 71 81 82 81 78 81 86 87 85 83 81 79 78 78 77 76
44 43 45 49 45 41 39 37 36 36 36 35 37 41 41 38 40 40 35 32 31 30 32 35 32 29 32 34 37 39 35 32 34 36 35 32 34 36 34 33 33 34 43 48 43 48 58 58 56 57 55 53 52 50 50 52 52 52 54 59 61 61 63 63 58 61 60 47 47 65 72 72 79 84 82 78 75 77 83 85 82 79 78 76 75 76 76 76
43 41 43 48 44 41 44 42 37 35 36 36 36 40 40 38 41 40 35 35 37 31 32 40 38 29 28 30 34 40 41 39 41 43 41 40 41 42 41 41 38 31 32 43 48 49 57 64 61 56 55 54 52 50 49 51 58 61 60 61 62 61 63 65 66 67 66 61 58 69 86 92 87 82 80 77 73 73 77 78 78 77 78 76 75 76 77 76
43 41 44 44 40 44 47 41 35 32 34 36 36 38 39 38 39 37 32 35 41 37 33 39 38 30 29 30 32 39 41 41 45 46 44 45 43 41 45 47 43 35 33 42 52 51 51 60 62 56 56 58 54 52 51 51 57 64 67 68 67 65 65 67 71 72 68 62 59 67 87 94 84 76 79 78 75 75 78 82 83 82 82 81 79 78 77 78
53 51 49 40 38 46 43 35 33 29 27 30 34 38 39 37 37 35 31 29 34 36 34 35 36 32 31 32 33 36 35 35 39 38 35 38 36 33 37 38 36 38 37 41 52 55 51 55 61 59 59 62 61 59 59 59 58 63 72 80 82 82 79 74 74 78 76 72 67 65 74 82 80 76 78 79 80 82 85 88 87 85 83 83 83 82 81 82
57 52 46 36 38 44 39 33 32 27 27 33 38 41 42 39 35 35 35 30 27 30 30 33 37 34 31 34 37 35 31 30 32 29 27 29 28 26 27 26 26 31 36 40 50 57 54 52 56 55 54 59 62 63 66 66 65 70 82 92 95 92 88 83 80 81 83 82 75 68 68 74 77 77 80 84 86 88 90 89 87 88 86 83 80 80 82 83
Wind_Speed
8 7 7 8 8 8 8 8 8 8 8 8 8 8 7 7 7 7 7 7 7 7 7 8 8 8 9 9 11 12 13 13 10 8 7 3 3 6 5 6 12 15 17 17 16 15 13 12 11 11 9 8 5 5 7 5 4 5 5 6 6 6 3 2 1 3 4 4 6 9 9 10 10 9 9 5 3 2 1 3 3 3 4 6 9 17 23 23
8 8 7 8 8 8 8 8 8 8 9 8 8 8 8 8 8 8 8 7 7 8 8 8 8 9 9 9 10 12 13 12 10 8 7 3 6 4 5 8 14 18 19 17 18 17 13 12 12 12 8 6 5 5 7 6 6 7 5 6 6 2 3 4 3 4 4 6 8 9 8 9 9 8 9 8 5 3 3 4 5 5 7 9 12 18 21 21
8 8 7 8 8 8 8 8 8 9 9 9 9 9 8 8 8 8 8 8 8 8 9 8 9 9 9 9 10 11 12 11 8 3 4 4 9 3 8 12 16 21 18 13 16 14 10 11 13 12 7 5 5 6 8 6 7 7 5 7 4 1 3 3 1 2 4 7 8 9 9 9 7 7 8 9 9 2 2 2 4 6 8 9 13 17 19 20
9 8 8 8 8 8 8 8 8 9 9 9 9 9 9 8 8 9 9 9 9 9 9 10 9 9 8 8 9 9 9 10 3 7 3 6 9 3 12 14 18 22 14 8 11 9 7 11 13 10 7 6 5 6 8 7 6 5 6 7 1 2 1 3 1 3 5 7 8 9 10 9 7 8 8 9 8 1 3 2 1 3 8 11 14 16 17 19
9 9 9 9 9 8 8 8 9 9 9 10 10 10 9 9 9 9 9 9 9 10 10 10 10 9 7 6 7 6 6 5 4 5 2 8 6 6 14 16 20 19 11 8 10 8 8 11 12 9 6 6 7 7 8 9 7 4 7 7 1 1 3 2 1 5 6 8 8 9 9 9 9 9 7 8 8 2 4 3 2 1 8 11 14 15 16 17
9 9 9 9 9 10 9 9 9 9 10 11 11 11 10 9 9 9 9 10 10 10 10 10 11 8 5 6 5 4 6 2 4 2 6 7 1 10 14 19 20 14 10 11 11 10 11 12 10 8 7 6 9 8 7 10 9 6 7 7 5 5 6 3 5 7 7 9 8 9 9 9 11 10 7 7 9 7 6 4 3 2 9 11 14 15 16 17
9 9 9 10 10 10 10 10 10 10 10 11 11 11 11 10 10 10 10 10 10 11 10 10 11 8 5 5 3 5 7 2 4 4 8 3 6 12 16 21 18 12 11 12 11 11 10 12 11 8 7 6 8 8 7 10 10 9 6 5 6 6 7 7 7 8 8 9 9 9 10 10 11 9 8 10 9 6 6 4 1 6 12 12 14 15 15 16
9 9 9 10 10 10 10 11 10 10 11 11 12 12 12 11 11 11 10 10 10 11 11 10 9 7 5 4 4 6 5 2 4 5 6 3 9 12 18 22 15 10 11 11 10 10 9 11 10 7 7 5 6 8 8 9 11 12 9 4 6 6 6 7 8 8 8 8 8 9 10 10 9 9 11 13 6 5 4 2 6 11 12 12 14 15 15 15
10 10 9 10 10 10 11 11 11 11 11 12 12 12 12 12 11 11 11 11 10 11 11 9 8 5 4 3 7 6 1 5 3 4 1 9 12 16 19 18 14 9 9 9 7 9 8 9 8 5 5 3 6 8 9 9 6 8 10 7 6 7 7 7 8 9 8 7 7 10 11 9 6 8 9 7 4 5 3 6 9 11 12 12 13 14 14 14
10 10 10 10 10 10 11 11 11 11 11 12 13 13 13 12 11 11 12 11 11 11 10 9 6 3 3 4 7 4 5 5 3 3 6 13 16 18 15 13 14 9 7 7 6 8 6 4 5 3 4 2 6 6 9 8 1 2 6 6 7 8 6 7 8 8 8 8 9 11 11 7 5 6 6 2 7 3 4 8 10 11 12 11 13 13 12 13
11 10 10 10 10 11 10 11 11 11 12 12 13 13 13 12 12 12 12 12 11 11 10 9 4 1 5 6 7 3 6 5 4 5 8 15 18 15 10 11 12 7 6 6 6 7 4 3 4 4 2 4 6 6 8 7 2 2 5 6 8 8 7 8 8 8 7 7 8 9 10 9 7 9 8 2 5 2 5 8 10 10 11 11 12 12 11 12
11 10 10 10 10 11 11 11 11 12 12 13 14 14 14 14 13 13 13 13 12 10 9 7 2 1 5 7 6 1 5 5 4 7 9 14 14 10 8 9 9 5 4 4 5 6 4 3 7 7 1 4 6 5 6 5 4 5 5 7 8 8 9 8 7 6 7 6 5 6 9 10 10 12 8 1 2 2 5 7 9 9 10 11 12 12 11 13
11 11 10 10 10 11 11 11 11 12 12 13 14 14 15 15 14 14 13 12 11 9 8 5 2 3 6 5 1 2 5 6 5 8 10 12 11 8 6 7 6 4 2 1 3 5 5 4 8 7 1 4 5 3 2 4 5 5 5 7 5 7 7 5 3 4 6 3 3 6 7 7 10 11 4 3 2 4 6 8 8 8 9 10 12 11 11 13
12 11 11 11 11 11 11 12 12 12 12 13 14 15 16 15 13 13 12 11 9 9 6 3 3 5 6 3 2 4 7 6 5 8 11 11 10 8 6 5 5 4 2 1 2 2 5 5 6 5 2 4 1 3 4 5 5 4 4 5 5 6 3 7 3 3 4 2 3 8 7 5 7 8 2 3 2 5 7 8 8 8 8 9 11 11 12 13
12 12 12 11 11 12 12 12 13 13 13 14 14 16 14 11 10 10 8 6 5 6 5 3 5 5 6 4 3 3 7 7 7 10 12 12 11 7 7 7 6 5 3 2 2 1 4 6 6 5 5 3 1 5 7 5 5 5 4 5 5 5 3 6 4 1 1 3 4 7 6 6 5 7 4 3 2 4 6 7 8 8 9 9 10 10 10 11
13 12 12 12 12 12 13 13 14 14 15 14 15 15 10 6 7 7 3 1 3 6 6 5 6 7 6 1 4 2 5 6 5 9 12 13 12 7 7 9 7 6 5 4 2 2 5 8 5 3 4 5 5 6 5 5 5 5 6 5 4 4 2 4 6 3 2 1 4 6 5 6 3 5 3 1 1 3 5 7 8 8 9 10 9 9 9 10
13 13 13 13 13 13 13 14 15 15 15 16 15 10 4 2 4 5 4 4 4 5 6 5 4 6 4 1 3 3 6 5 4 7 9 10 11 9 10 9 8 8 7 6 4 4 7 8 3 2 4 6 6 5 5 7 6 6 6 5 4 5 4 2 5 6 1 3 4 4 6 8 5 3 3 2 2 4 5 6 8 8 9 10 9 10 10 11
13 14 14 13 13 13 14 15 15 16 16 16 12 5 3 2 3 4 3 4 3 4 6 4 4 6 3 3 2 3 6 4 4 5 6 7 10 12 11 8 9 10 9 7 6 6 6 6 4 5 6 6 6 6 7 5 3 5 6 5 5 5 6 4 3 3 1 5 6 6 7 9 11 8 6 4 4 6 6 5 7 9 10 11 11 10 11 12
14 14 14 14 14 14 14 15 15 16 16 13 7 3 3 2 1 1 3 3 4 4 3 3 5 3 2 3 3 4 3 1 2 4 6 9 11 13 11 8 10 10 8 7 7 7 5 5 5 6 7 9 9 10 9 3 3 2 3 4 5 4 5 4 1 0 2 6 7 9 10 10 12 11 8 6 5 6 6 5 7 9 10 10 11 11 11 13
14 14 15 14 14 15 15 15 15 15 14 10 6 4 4 2 3 3 4 5 7 8 8 5 7 6 2 2 2 1 3 3 4 5 8 10 13 14 11 10 10 8 7 6 6 6 6 6 7 8 9 10 11 11 8 3 2 3 4 5 6 6 5 2 3 3 2 6 8 8 10 11 12 13 11 7 6 7 8 8 9 9 10 10 11 13 13 13
14 14 15 14 15 15 15 15 15 14 11 6 5 6 2 4 3 2 2 6 9 10 11 9 8 9 7 4 1 1 2 4 4 5 9 11 14 13 11 11 10 8 7 6 6 5 5 7 8 9 6 5 7 7 4 3 4 6 6 7 6 8 5 2 2 3 2 4 6 6 8 10 12 13 13 9 8 9 10 9 10 11 12 11 12 14 14 12
14 14 14 15 15 15 15 15 14 13 7 2 5 6 2 6 4 3 4 7 7 7 9 8 7 8 9 9 6 1 3 5 7 7 9 11 14 11 10 12 11 8 8 6 5 5 6 8 10 7 3 2 4 5 5 6 6 6 6 7 6 6 5 2 3 3 4 3 5 6 8 9 11 14 13 11 10 10 11 11 11 13 13 13 13 14 14 12
14 14 14 15 15 15 15 14 14 10 2 2 6 4 2 4 4 3 4 7 6 3 5 6 6 7 7 8 8 8 8 9 10 11 13 12 12 9 9 12 11 8 9 10 8 6 5 5 7 6 5 6 6 6 7 6 6 7 6 6 6 4 4 3 4 5 4 5 7 10 9 8 11 13 13 13 13 11 12 12 12 13 14 14 14 13 13 14
14 14 14 15 16 15 14 13 11 4 2 5 7 3 1 3 4 3 4 6 4 2 2 3 4 4 2 0 7 12 11 8 8 9 15 14 9 8 10 12 11 8 8 11 11 9 4 2 2 6 8 9 8 8 8 7 6 8 8 8 8 6 6 6 4 3 6 8 9 9 8 8 10 12 12 10 11 12 12 12 12 13 15 15 14 14 14 15
14 14 14 15 15 15 13 9 3 2 4 7 5 4 0 3 4 3 5 5 3 3 3 4 3 2 2 2 6 9 6 7 8 6 14 15 11 8 8 8 8 9 10 12 10 9 6 5 4 7 9 11 10 8 9 8 7 7 9 10 10 10 10 11 8 5 7 7 8 6 7 6 6 8 8 6 9 12 12 12 13 13 13 14 14 15 15 15
14 14 14 14 15 15 9 2 1 3 7 3 5 4 2 6 4 3 4 4 3 4 4 5 3 3 3 3 6 5 5 6 6 6 11 14 12 7 6 7 6 7 8 9 6 6 4 6 6 7 7 10 10 8 8 8 8 6 4 6 9 10 10 9 7 5 6 3 5 5 7 5 4 6 7 6 8 12 12 10 9 8 9 11 12 14 14 13
13 14 14 13 14 13 7 2 3 6 5 3 5 3 4 7 4 4 4 4 3 2 2 3 2 2 2 3 6 5 2 4 5 8 10 12 12 8 7 8 7 5 4 5 4 4 6 7 8 8 8 8 8 6 7 8 8 4 3 2 6 6 6 6 6 7 5 3 3 8 7 6 7 6 6 7 8 10 11 7 4 3 5 8 10 12 13 11
13 13 13 12 12 10 6 6 7 6 2 3 2 4 6 5 4 5 5 3 2 1 1 2 3 2 1 2 8 6 1 1 3 8 9 10 11 8 9 10 9 8 8 7 4 4 7 9 10 11 10 7 7 7 7 8 9 4 3 1 4 4 5 5 5 6 4 3 5 9 8 6 7 5 6 7 9 11 10 5 0 1 3 5 7 10 12 10
13 13 12 12 12 9 5 7 8 5 1 1 3 6 6 3 4 4 4 2 2 1 1 2 3 3 1 3 8 7 4 3 1 4 8 10 9 6 6 8 9 9 10 10 7 3 5 4 6 9 9 7 9 9 8 9 8 3 1 3 4 4 5 5 5 5 3 4 8 8 9 7 7 6 6 7 8 8 4 2 2 3 4 5 4 7 9 8
14 13 12 12 11 6 4 8 10 8 4 3 4 6 4 5 4 4 4 1 1 2 1 1 2 2 4 3 6 6 7 4 2 6 8 9 10 7 3 3 6 6 8 10 9 2 6 2 2 6 7 4 4 5 5 9 7 1 3 6 6 5 4 4 5 4 4 7 9 8 8 7 7 7 5 3 2 2 3 2 4 6 7 6 2 5 7 8
15 14 12 10 7 4 4 4 4 5 4 3 4 4 5 4 3 4 3 0 1 2 2 1 0 3 5 3 2 5 7 5 5 8 8 8 10 9 5 4 6 6 6 8 9 6 7 5 4 6 7 4 3 3 4 7 7 4 6 7 5 5 4 4 5 4 6 8 5 4 7 8 8 6 1 3 3 2 4 5 6 8 9 6 1 4 6 7
16 14 13 12 9 8 8 3 1 2 3 3 4 4 5 4 4 3 2 1 1 1 2 1 3 4 4 2 1 2 5 6 8 9 8 9 10 9 10 8 7 8 7 7 8 7 8 9 9 9 8 8 7 6 6 6 7 7 7 6 6 6 5 6 6 6 8 6 3 4 5 7 8 4 3 4 2 3 4 5 7 8 8 6 1 3 5 6
18 17 15 13 11 13 12 7 6 8 6 5 5 5 5 4 3 2 1 1 1 3 3 3 5 6 6 4 1 2 3 5 8 8 7 10 10 9 12 10 10 10 6 6 8 6 7 9 12 11 8 10 11 7 6 7 8 9 7 7 7 7 6 7 7 6 8 4 4 3 3 6 8 2 5 4 3 5 5 5 7 7 6 5 2 3 5 6
19 16 14 10 10 14 12 7 7 7 5 5 6 5 5 5 1 1 1 1 3 2 2 4 6 5 3 1 2 1 2 4 7 7 7 9 9 8 10 9 11 10 5 5 6 6 8 6 9 11 6 10 14 11 8 6 6 9 9 8 8 6 6 7 5 6 7 3 4 4 4 6 6 1 5 3 4 4 4 6 6 5 4 4 2 3 4 6
15 10 8 6 8 9 10 10 7 5 4 5 6 5 5 4 2 1 1 2 3 3 3 3 6 6 4 3 2 1 1 1 6 7 6 8 7 7 8 9 12 11 6 6 4 5 9 5 6 8 3 7 13 13 11 8 5 7 6 7 7 7 7 5 2 2 4 4 3 5 4 5 2 4 4 3 3 3 4 6 6 6 5 4 4 2 2 4
9 4 3 3 4 3 6 13 10 5 4 5 6 6 3 0 1 1 1 3 2 4 5 3 4 5 4 4 2 2 0 2 5 7 6 6 6 6 7 6 9 11 9 6 3 4 7 4 7 8 5 7 8 8 10 10 5 4 6 7 5 5 7 5 2 2 1 6 4 3 5 5 3 4 4 3 3 4 6 5 6 7 6 5 5 4 2 4
6 4 0 3 1 1 6 12 11 6 5 5 6 3 1 1 2 2 2 3 1 3 6 4 1 2 2 3 2 3 1 3 6 6 5 6 4 2 5 4 3 9 11 7 4 4 6 4 6 8 7 7 4 4 8 10 7 5 5 5 3 2 6 6 5 4 5 7 5 4 6 6 4 3 3 3 2 4 5 5 5 7 6 6 6 4 2 3
6 4 2 4 1 4 8 11 9 6 5 5 4 1 0 1 1 1 1 2 2 2 4 2 1 2 2 1 1 3 1 3 6 6 5 6 3 2 3 3 2 4 7 6 5 3 4 5 5 8 6 6 6 5 6 8 10 7 3 2 3 4 6 6 6 7 7 7 5 5 6 6 5 2 4 4 2 4 4 4 6 9 9 8 7 6 4 1
6 4 3 4 1 7 9 9 7 5 5 5 4 2 1 2 3 1 1 1 2 2 2 1 1 1 1 2 1 3 3 2 4 6 5 5 3 2 3 1 2 1 2 6 7 3 3 6 5 7 7 5 7 7 7 8 9 8 5 5 5 4 4 5 5 6 6 7 6 6 5 3 2 3 5 5 4 4 3 5 7 9 10 9 8 8 8 6
5 4 3 4 2 9 8 5 6 4 4 3 1 2 2 2 3 2 1 1 2 2 1 1 1 1 1 2 2 3 3 2 2 5 4 2 3 1 2 3 1 1 1 4 7 3 3 5 4 5 6 5 6 5 5 5 6 7 7 8 7 5 4 4 5 5 6 6 5 5 5 0 4 4 4 5 5 4 5 5 6 7 9 9 9 8 8 7
4 4 3 3 5 8 5 5 4 2 3 2 1 3 2 0 1 3 2 1 2 1 2 3 2 2 2 1 1 3 3 2 1 3 3 2 2 1 2 4 3 1 2 2 4 3 3 4 6 5 4 6 4 2 2 2 3 5 6 8 8 6 6 6 7 6 6 7 5 5 5 1 4 3 4 6 6 6 7 6 6 7 8 8 8 8 8 7
4 3 3 4 5 3 4 3 2 1 2 2 1 2 1 1 1 2 2 2 2 1 1 3 3 2 2 2 2 3 4 2 0 1 1 2 3 4 4 4 3 3 1 1 2 2 1 3 6 7 6 6 1 4 1 0 1 3 4 4 6 6 6 7 7 6 6 6 5 6 6 1 3 2 4 7 7 7 8 7 6 7 7 7 7 8 8 8
4 3 4 5 3 3 5 2 3 2 1 3 1 1 1 1 1 1 2 2 2 2 2 2 2 1 1 2 3 4 4 3 1 0 1 3 6 5 6 5 1 3 3 2 3 4 2 3 6 6 6 6 2 3 3 3 3 5 2 0 3 5 6 6 5 4 5 6 5 6 7 2 3 2 5 7 7 7 7 7 7 6 7 7 7 8 8 8
4 4 5 4 1 4 4 2 3 2 4 3 2 3 2 0 1 0 0 1 1 1 2 2 1 2 1 2 4 4 4 2 0 2 1 1 4 4 6 8 4 2 2 2 1 2 3 3 4 5 6 7 6 6 6 4 5 5 1 2 2 4 5 5 5 5 7 8 6 6 5 1 4 3 5 7 9 8 7 7 7 6 7 6 7 7 7 8
4 3 4 4 2 3 1 1 1 2 4 3 3 4 3 3 3 2 2 3 3 2 2 1 1 3 3 2 3 3 2 2 1 1 1 0 3 3 5 9 8 5 5 8 5 2 3 2 4 6 6 7 6 4 2 2 4 2 1 2 3 3 4 5 5 6 8 8 8 8 4 3 4 5 6 6 8 8 7 7 7 7 7 6 6 7 7 7
4 3 4 5 3 2 1 1 1 1 3 3 3 2 1 3 4 2 1 2 3 3 2 2 1 3 3 3 4 3 1 1 2 1 1 0 2 4 3 4 6 6 7 9 7 2 3 2 4 6 6 5 4 1 2 3 6 3 1 3 5 5 3 4 4 4 4 6 7 7 4 6 8 6 7 7 7 8 7 7 7 7 7 7 7 7 7 7
3 3 4 4 3 2 2 2 1 1 2 1 1 2 0 1 4 2 0 1 3 2 1 2 2 1 2 3 4 3 2 2 2 1 1 2 0 3 4 3 3 7 5 4 4 2 3 3 5 6 6 3 2 2 2 4 6 3 4 5 6 7 4 5 5 1 3 6 4 5 5 4 8 7 8 7 7 8 7 7 7 6 7 7 7 7 8 8
1 1 2 1 1 3 3 3 3 3 3 2 1 1 2 2 2 2 1 1 1 1 1 1 2 2 2 3 3 3 3 3 1 1 1 2 1 2 4 5 5 6 3 1 1 2 3 2 4 6 4 2 2 1 3 2 2 4 5 5 6 7 5 3 4 4 5 4 1 3 4 4 7 7 8 7 7 8 8 7 6 6 7 7 7 8 9 9
0 2 2 3 1 3 4 4 4 4 4 2 1 2 2 3 3 2 1 1 1 1 2 1 1 2 2 3 3 2 2 2 1 3 3 4 3 1 2 4 4 4 4 1 1 0 1 2 3 5 4 4 4 3 4 5 4 5 5 5 5 5 4 3 4 6 6 4 2 5 8 10 8 6 7 7 7 8 8 7 7 8 8 7 8 9 9 10
1 2 2 1 3 4 4 4 3 4 4 1 1 3 2 3 4 3 2 1 1 2 1 1 1 2 2 2 3 0 3 3 2 3 4 4 2 1 1 1 1 3 3 3 3 1 2 2 4 4 4 5 5 4 4 4 4 5 6 8 7 5 4 4 5 6 5 2 3 5 7 7 5 5 7 7 7 8 9 9 9 8 8 8 9 9 9 10
2 2 1 3 4 2 2 4 1 2 3 1 1 3 2 2 4 2 2 3 2 2 2 2 2 1 1 2 2 1 4 4 4 4 5 5 3 3 2 2 4 4 2 1 1 2 3 2 4 5 5 4 6 6 5 4 3 2 6 10 9 7 5 5 5 6 6 4 1 2 3 4 4 5 6 7 9 10 11 11 9 8 9 9 10 10 10 10
0 0 2 2 3 1 2 3 2 2 2 3 2 2 1 2 3 0 2 2 0 1 3 3 3 2 3 3 1 3 3 5 7 7 6 5 4 3 3 3 3 4 3 2 2 2 3 4 4 5 5 3 6 7 6 5 5 2 3 7 7 6 7 7 4 7 8 6 2 1 3 5 6 6 7 8 10 11 11 10 8 8 10 10 10 11 11 11
Wind_Direction
346 349 348 347 348 348 345 343 340 337 335 329 326 325 325 327 326 324 324 320 321 318 314 314 311 320 322 321 323 320 324 318 302 277 246 267 306 246 245 199 180 167 158 156 160 163 159 167 161 165 176 170 200 175 171 203 197 211 222 229 237 233 237 65 10 1 347 348 3 345 349 340 335 350 351 324 270 335 245 189 138 131 77 74 98 121 138 143
345 346 348 348 349 348 345 342 339 336 333 329 325 325 327 325 325 323 321 319 316 313 311 310 313 325 326 325 323 322 327 306 279 262 229 294 339 266 213 188 180 165 157 164 172 171 168 169 163 173 182 170 183 163 170 187 199 223 228 234 242 253 31 44 25 19 345 334 341 331 338 333 330 341 339 330 331 332 229 165 150 156 115 107 119 128 138 142
344 344 347 348 349 346 343 341 339 335 330 327 323 322 323 322 323 320 318 316 312 312 313 318 322 327 327 323 321 328 327 293 262 201 174 328 338 272 190 175 174 167 164 178 181 179 180 169 167 179 185 180 183 176 186 181 196 227 237 243 242 70 46 66 62 11 338 331 325 321 328 318 330 337 324 327 325 306 179 139 155 165 138 128 130 134 139 142
344 344 347 348 347 344 340 340 336 333 328 324 320 317 318 320 319 318 317 313 311 311 313 322 326 330 330 318 321 331 311 274 220 109 116 326 337 223 180 167 169 170 170 190 185 187 188 170 174 185 190 185 174 187 195 178 192 216 227 253 350 81 227 133 120 329 322 320 317 314 313 311 333 324 307 319 313 154 107 66 103 149 146 145 140 140 144 144
344 344 347 346 346 343 338 337 334 331 326 320 316 315 316 317 317 316 315 313 312 311 315 322 327 332 328 315 324 320 281 257 119 95 335 329 345 173 172 164 167 170 175 185 177 181 179 172 176 186 200 186 168 188 197 188 209 233 226 248 338 254 251 131 265 309 313 306 304 303 311 324 325 307 302 314 306 348 32 21 8 90 146 149 143 143 151 153
344 346 346 345 345 342 338 335 333 330 324 319 315 314 314 313 316 314 313 314 312 312 316 322 329 337 332 322 321 274 262 293 81 16 322 334 69 158 165 161 162 167 174 174 169 176 173 173 180 188 203 190 181 191 191 189 210 240 223 226 231 249 266 277 290 295 299 296 298 303 316 325 308 301 316 310 295 316 346 352 340 94 135 144 146 152 163 163
343 345 345 346 345 340 337 334 332 329 323 318 314 312 312 313 315 314 313 312 311 314 314 320 331 340 342 329 284 234 255 315 70 328 320 325 146 156 163 158 156 161 174 173 169 177 171 179 190 192 201 192 191 192 186 192 207 236 234 213 228 247 261 272 284 285 292 294 297 301 306 305 296 305 321 300 294 328 356 355 35 123 134 146 155 162 168 166
341 343 344 344 343 339 336 333 331 327 322 317 314 312 312 313 314 313 312 309 310 311 310 319 334 344 353 330 276 249 245 76 67 317 317 151 151 156 159 157 162 167 180 181 173 182 177 187 195 195 211 193 187 188 182 201 211 229 243 236 238 246 253 268 277 279 288 287 291 293 290 289 292 312 302 286 307 30 27 79 125 129 138 149 160 167 169 169
338 341 343 343 342 339 335 333 331 326 323 319 314 312 311 311 311 309 308 306 305 306 307 316 334 351 354 303 279 274 133 81 42 327 90 147 150 150 151 159 175 177 181 183 184 195 187 197 196 198 241 190 182 189 183 211 212 216 238 247 254 260 262 272 274 277 282 277 286 285 282 283 297 315 285 272 22 56 99 127 128 134 142 149 162 169 170 170
336 338 339 341 339 336 335 332 329 326 324 319 314 311 310 308 307 305 302 300 298 300 301 308 334 356 305 275 269 275 90 84 54 60 137 151 147 149 154 164 174 176 177 178 199 203 197 222 196 199 275 200 189 189 187 218 247 183 241 259 265 269 271 272 273 276 278 274 270 271 279 282 291 292 257 111 66 80 135 128 135 141 144 153 165 169 168 169
333 334 335 338 336 334 334 330 328 327 324 319 314 311 310 307 304 300 295 293 291 291 293 298 327 330 276 266 264 283 99 111 86 86 140 153 150 152 158 165 170 175 170 173 200 200 211 246 191 202 244 167 180 184 194 225 292 254 256 268 258 260 260 253 259 267 267 267 259 262 276 273 264 258 250 43 58 126 146 138 141 144 147 156 166 168 166 171
330 331 331 333 333 332 331 329 328 326 323 318 315 313 310 307 301 296 292 288 284 280 280 283 306 322 271 255 253 270 114 139 130 113 134 152 158 152 148 163 172 177 170 179 192 195 219 224 202 214 206 157 174 172 191 211 257 255 257 268 255 251 251 236 243 263 258 264 266 266 270 251 231 236 240 44 68 168 167 155 144 149 154 159 168 169 172 178
328 327 328 330 331 331 329 328 326 323 322 318 316 313 310 307 299 294 289 280 276 271 266 261 258 270 266 258 228 166 152 149 148 141 142 154 159 151 150 166 181 191 208 194 151 183 210 209 217 224 230 213 182 109 159 190 239 251 236 255 264 250 236 190 202 251 240 248 259 249 259 234 203 213 225 62 157 191 180 167 154 160 162 166 173 173 181 186
326 326 327 328 329 330 329 326 324 323 322 320 317 313 312 309 303 298 288 274 265 255 240 213 235 247 253 260 110 172 184 162 174 172 163 167 165 161 163 172 189 194 210 173 106 166 201 201 228 227 216 244 163 127 196 193 217 241 228 231 249 251 176 125 142 240 219 147 192 229 245 241 185 166 116 54 181 198 193 178 164 171 174 176 179 182 190 194
326 327 327 328 330 330 329 326 325 325 324 321 318 316 315 314 316 312 298 276 249 222 197 193 227 234 255 242 132 180 206 200 218 202 189 187 185 184 176 174 178 178 181 166 117 129 188 191 214 210 182 209 198 194 210 202 202 219 240 219 210 233 156 137 159 235 288 104 176 226 244 247 195 135 99 69 154 203 208 186 171 182 186 186 186 190 196 199
327 327 327 329 331 330 329 327 325 325 324 322 319 318 318 330 339 331 328 122 135 147 170 208 218 234 275 240 122 140 192 193 209 196 198 202 206 203 165 158 156 164 175 165 151 133 173 188 207 238 192 188 209 214 214 213 210 206 234 242 199 214 206 160 157 151 313 77 183 229 264 264 191 132 122 92 181 212 212 193 183 192 196 197 195 194 201 202
328 328 329 330 331 331 330 327 325 326 325 324 322 317 305 338 8 12 59 109 123 146 200 239 222 233 268 120 153 163 148 146 131 154 183 201 209 188 153 152 152 157 159 157 174 157 169 188 193 233 217 211 214 218 223 222 218 197 212 244 228 229 249 190 150 146 200 260 222 233 257 270 265 202 186 192 221 223 220 201 188 197 205 206 203 200 205 207
329 328 328 329 331 331 330 327 325 325 326 325 323 310 285 311 24 20 61 115 143 180 217 237 230 238 218 152 185 135 123 123 128 147 165 176 188 179 165 162 150 154 158 156 176 174 175 192 199 208 206 213 214 209 222 237 249 215 202 232 232 222 234 231 179 134 202 261 256 251 246 255 262 250 218 205 224 233 227 210 200 204 209 211 211 208 208 211
329 327 328 329 331 331 329 326 324 325 327 329 331 311 292 283 232 216 186 175 191 225 259 192 214 270 68 131 140 121 125 120 198 182 160 155 167 176 176 168 158 167 178 172 174 178 184 190 200 219 208 205 209 213 231 275 346 263 219 250 255 229 227 226 214 189 294 275 261 256 256 255 258 256 233 201 205 238 234 216 215 211 212 215 215 215 213 214
328 327 327 328 330 329 327 323 321 324 327 333 330 280 259 261 234 189 185 223 230 262 293 262 240 275 286 207 161 186 236 228 222 177 154 160 165 170 174 170 172 188 202 188 162 166 199 206 202 218 222 215 210 217 247 305 338 280 263 258 258 255 251 164 180 242 274 277 266 254 261 263 262 262 251 216 194 232 239 224 223 221 219 218 217 220 217 213
327 326 327 328 329 327 324 321 319 322 326 332 302 266 291 353 329 353 334 264 239 247 266 265 264 267 260 248 170 15 252 204 205 165 155 169 171 172 171 172 186 197 200 184 139 145 203 222 220 222 231 227 206 210 244 276 259 260 262 261 256 257 258 156 195 253 211 251 265 258 262 262 261 262 256 237 214 231 241 234 229 227 225 223 219 222 221 213
326 326 327 327 327 326 324 320 317 321 324 311 276 266 7 32 18 351 323 289 269 245 250 255 258 255 248 240 224 252 279 229 207 173 158 173 184 185 170 180 202 190 172 173 156 170 206 228 229 214 183 168 185 202 217 231 247 249 250 260 259 263 274 229 199 197 183 233 279 281 275 268 266 264 258 245 232 235 241 241 237 229 228 228 222 221 221 214
325 326 327 327 327 325 322 318 318 319 298 256 276 265 55 45 17 320 267 284 288 225 227 236 238 242 235 235 215 204 228 230 217 186 165 177 195 195 179 187 206 190 171 192 203 204 206 222 223 190 165 187 192 195 211 226 237 237 242 252 251 257 275 244 174 170 206 260 284 287 284 275 268 259 252 245 238 241 239 239 241 233 231 231 227 225 221 216
326 326 326 327 324 322 323 321 315 297 221 277 275 246 71 18 353 311 248 276 282 184 182 212 241 253 227 216 185 193 212 221 225 188 167 181 188 182 194 197 202 201 194 205 214 228 227 98 151 188 185 204 207 199 214 231 237 234 237 249 261 268 271 269 258 255 270 257 248 265 273 260 252 244 240 228 219 232 232 228 232 231 233 232 229 227 223 221
327 325 327 327 323 324 329 324 296 214 282 285 245 196 302 336 335 283 249 270 236 165 155 179 208 205 141 106 168 189 211 211 225 191 168 191 191 170 196 202 204 213 208 206 211 237 239 117 146 208 198 210 217 211 217 228 250 245 226 235 258 269 270 272 272 270 276 250 204 228 265 253 232 235 232 197 194 217 218 218 225 226 230 231 229 225 222 222
325 325 327 325 324 330 337 319 193 288 293 265 165 168 292 321 311 236 249 268 193 149 152 183 187 143 142 154 161 182 205 187 205 194 180 201 199 185 197 183 206 235 209 196 210 247 229 151 182 215 201 211 221 225 220 218 249 256 211 223 246 257 264 269 263 236 260 275 156 202 266 272 242 221 203 186 200 212 207 211 228 232 234 236 234 230 224 218
324 323 325 323 326 336 340 311 312 301 282 145 144 216 300 311 274 199 242 245 172 127 151 165 125 108 104 158 174 195 187 124 150 181 189 202 193 197 216 184 193 232 174 171 213 223 202 189 201 208 203 212 218 223 208 202 240 259 100 214 240 246 259 257 245 231 258 314 179 210 245 268 264 233 188 194 218 220 207 200 222 250 258 254 249 241 230 217
321 321 322 319 319 321 304 290 300 291 270 114 171 274 317 307 208 195 253 237 135 90 166 110 94 131 96 160 200 224 310 73 172 169 174 196 192 197 220 207 201 194 166 188 219 151 179 203 203 204 214 222 226 234 211 201 237 258 96 235 261 268 271 258 239 233 248 282 235 214 214 242 260 227 176 196 226 227 204 173 125 337 316 286 266 249 231 213
319 319 318 316 317 314 277 265 270 261 234 198 264 315 323 256 201 220 260 255 146 133 136 110 134 171 175 183 207 227 252 268 270 134 158 187 201 217 235 227 218 192 176 211 242 128 143 209 214 210 217 223 229 237 221 208 231 264 158 240 258 258 260 249 242 239 216 240 253 223 199 233 261 228 196 201 226 235 200 122 22 11 352 319 277 248 225 201
317 314 315 316 319 321 267 250 253 245 243 262 299 327 287 218 222 231 222 240 161 113 119 175 164 241 291 243 195 201 219 232 104 139 165 176 190 213 265 248 222 201 183 218 247 165 117 113 232 218 221 232 238 227 213 218 229 252 227 232 230 221 225 226 233 244 223 231 248 231 203 231 263 249 229 190 200 303 339 349 356 4 350 338 287 230 206 185
313 310 311 306 302 299 266 250 239 219 219 284 324 299 238 209 243 241 185 152 301 109 140 170 128 312 315 302 181 172 194 198 154 158 168 169 182 195 202 195 202 209 200 213 232 205 170 184 206 217 223 234 249 210 187 210 218 223 236 236 228 209 203 217 207 209 239 241 235 213 205 224 251 259 220 101 91 8 343 334 349 353 346 347 315 195 178 171
309 307 301 288 271 255 247 230 110 192 224 313 311 248 218 201 227 233 148 164 250 35 69 21 345 332 319 287 193 160 184 183 177 181 178 177 182 190 197 193 182 198 210 206 209 206 205 215 216 214 213 213 231 216 177 186 205 218 229 230 233 218 198 220 215 203 235 235 139 150 201 227 250 260 98 102 75 26 8 354 356 348 340 346 356 162 159 162
308 306 298 281 253 239 239 241 249 248 262 290 261 223 223 228 221 210 182 181 71 28 13 326 319 320 296 261 133 134 188 164 175 193 189 186 189 191 201 208 200 206 225 211 205 207 211 214 211 212 206 203 220 222 186 188 198 210 221 219 229 230 217 228 226 221 235 217 130 158 220 248 250 233 81 73 42 32 19 16 10 347 336 344 7 138 155 163
310 305 292 272 241 235 234 235 239 234 246 254 223 200 215 224 189 99 246 84 49 354 319 319 308 294 268 274 47 74 204 151 165 191 184 185 195 193 196 208 210 216 231 211 211 222 226 218 198 205 199 186 204 222 224 217 200 205 219 229 238 242 240 245 245 246 248 220 152 170 209 257 254 132 79 73 66 47 28 36 25 360 1 3 11 118 153 166
320 314 288 257 242 244 226 214 201 174 209 235 211 198 209 212 174 150 202 51 37 330 312 318 296 265 194 135 61 18 310 168 178 193 183 180 194 197 194 198 203 214 225 211 203 219 237 242 172 181 173 174 197 213 223 237 224 198 210 231 242 246 245 254 280 301 295 267 205 182 220 269 250 136 123 124 108 73 46 46 38 27 34 32 26 51 129 149
337 328 289 221 234 267 202 196 187 174 222 226 201 207 214 248 24 114 50 11 7 340 315 267 258 259 209 163 132 100 21 227 185 191 190 184 190 192 193 189 193 208 217 215 205 210 238 238 151 163 186 199 212 211 206 224 226 180 205 225 228 251 258 256 224 144 267 268 246 200 241 256 204 163 139 140 146 94 59 44 46 43 44 56 50 24 38 116
332 301 206 130 188 215 167 179 180 192 230 223 207 218 209 59 22 48 43 360 332 331 307 263 184 295 250 186 137 89 129 200 187 200 200 186 188 190 198 185 176 216 225 237 247 230 245 242 164 179 196 185 209 245 210 219 226 197 208 222 200 239 255 252 244 222 228 252 244 214 245 256 244 218 137 151 161 88 60 40 53 52 43 59 72 59 69 136
312 283 141 79 64 158 151 162 178 201 220 217 208 188 313 164 75 39 21 352 305 280 283 280 38 333 287 224 112 53 348 220 192 204 201 184 190 346 224 181 126 230 245 255 249 215 240 247 193 196 207 162 165 226 218 208 222 234 260 267 228 236 231 219 234 245 243 252 252 234 241 253 260 242 130 142 98 60 47 37 49 49 38 34 43 46 50 87
283 238 146 42 46 156 144 155 187 216 211 209 198 152 208 178 123 98 336 320 270 263 272 329 32 304 315 324 348 48 353 292 199 211 217 192 191 329 317 284 133 175 267 246 236 211 225 248 216 193 199 175 175 211 221 196 202 227 253 249 237 253 254 227 228 242 248 254 255 247 238 238 304 30 78 86 64 39 24 43 47 42 37 28 22 22 21 18
261 215 122 35 160 156 147 178 210 218 197 208 215 145 164 165 145 141 14 304 260 268 306 2 348 293 353 341 348 29 353 326 230 228 226 176 162 168 350 349 343 90 56 228 231 222 209 239 241 185 176 199 209 213 231 216 199 207 220 224 222 225 238 246 246 244 255 262 255 254 252 183 45 27 49 65 60 32 20 48 58 45 40 37 30 22 17 17
245 198 103 65 155 156 180 218 207 202 188 171 123 140 139 143 170 143 105 287 267 287 326 311 298 317 337 311 17 17 335 300 235 233 215 178 173 133 43 354 305 277 87 181 215 218 221 232 241 228 203 216 211 88 33 321 265 238 233 229 227 228 229 236 240 232 243 262 265 269 268 101 67 15 40 61 58 44 32 44 61 52 42 38 33 28 25 19
226 179 103 118 141 170 242 216 125 205 206 127 109 117 77 337 259 172 144 202 238 228 249 274 285 307 323 323 353 359 336 326 327 226 211 103 67 46 32 4 286 242 211 189 154 154 235 257 245 244 247 244 221 65 62 336 307 257 253 254 247 247 242 237 241 234 229 238 249 268 266 132 80 25 63 75 67 53 42 44 54 52 44 39 35 32 32 28
189 120 104 131 120 300 263 170 126 193 139 89 71 93 86 270 237 201 187 204 224 216 216 236 278 295 343 1 331 326 344 349 359 136 173 93 76 51 24 18 309 244 245 215 131 129 184 245 249 243 248 252 226 139 172 185 222 227 209 284 262 260 260 256 265 269 248 236 230 249 251 167 91 75 91 92 81 64 48 45 50 53 48 36 31 31 30 32
151 106 123 152 284 296 263 154 139 148 108 108 143 129 131 39 5 314 220 57 31 296 248 237 296 315 338 356 313 319 346 327 330 78 39 77 85 62 21 14 15 52 29 359 63 179 206 213 234 243 245 234 212 189 182 194 234 239 167 76 310 283 268 259 260 253 250 248 238 243 252 123 101 110 107 100 90 75 53 47 51 55 52 38 31 33 29 31
147 125 136 158 223 259 262 43 60 123 114 125 121 114 149 139 70 11 13 45 37 1 305 288 359 313 307 302 275 287 336 314 304 44 305 88 90 81 20 359 3 44 40 6 353 261 232 204 211 236 243 233 233 225 186 237 263 244 140 66 12 320 263 250 250 237 242 249 239 244 251 123 130 135 118 107 97 82 60 52 56 53 51 46 39 36 34 34
165 156 148 158 185 214 105 58 312 131 126 135 114 97 178 147 109 62 359 49 61 38 7 22 348 287 291 298 269 245 258 300 296 302 270 271 81 79 51 359 4 28 18 358 352 289 229 214 212 232 242 247 281 9 88 288 284 282 334 5 15 353 292 255 241 227 253 255 236 244 237 160 157 146 116 101 93 87 67 52 55 51 46 47 45 40 40 42
188 179 159 160 176 178 161 159 160 90 117 164 117 82 43 147 131 124 50 32 59 46 8 33 18 296 306 314 279 260 278 260 249 293 341 338 28 96 98 122 69 30 5 341 340 300 246 222 204 219 232 248 339 36 131 266 287 323 355 353 2 358 326 252 242 277 295 258 241 303 301 172 145 124 106 97 92 89 74 55 51 50 46 44 48 50 49 47
239 173 130 342 208 164 153 140 121 107 108 101 78 76 75 108 143 139 115 102 78 8 302 96 47 27 20 346 293 270 277 254 223 21 13 355 341 148 138 132 91 35 12 211 248 294 274 246 193 205 212 159 116 116 122 113 9 19 11 359 353 354 352 288 292 354 338 290 291 338 340 72 88 85 84 82 81 82 77 67 60 61 58 53 53 53 50 46
143 135 107 335 309 110 93 104 128 128 106 85 112 98 66 78 98 101 87 177 164 39 337 235 59 28 36 360 304 286 313 295 52 55 31 5 346 257 172 140 106 39 31 56 102 136 265 251 194 204 200 151 146 155 135 122 101 69 38 18 359 347 357 358 354 356 338 329 45 91 88 70 52 59 71 69 72 79 78 70 62 59 58 57 59 56 51 47
202 138 120 153 122 92 99 126 151 143 121 112 130 102 65 64 81 98 88 347 164 99 355 276 37 9 18 1 309 325 49 19 18 32 6 346 345 345 3 80 31 7 17 11 360 326 268 218 179 203 209 161 149 159 154 144 119 89 58 32 16 6 10 12 7 354 327 334 70 106 102 76 48 65 79 78 76 77 73 63 56 55 56 58 62 59 55 52
351 10 298 179 129 105 148 142 168 170 136 138 122 115 134 82 62 82 107 54 16 48 36 3 5 336 241 256 265 129 71 16 330 330 323 305 309 342 352 355 343 333 324 334 328 304 288 224 181 215 229 178 162 171 156 150 163 108 53 27 13 10 4 349 2 10 346 336 18 157 134 98 103 102 96 90 79 72 69 62 57 59 61 63 64 59 55 54
330 33 268 237 134 150 201 152 181 203 106 77 93 115 129 88 70 258 147 114 288 30 38 2 338 308 245 223 181 63 27 330 311 307 300 284 279 289 288 291 303 293 281 268 226 231 251 230 199 216 232 181 164 173 164 172 209 209 45 12 352 356 354 340 2 25 3 338 325 347 51 91 128 132 109 97 83 73 68 61 61 69 67 66 66 64 62 58